EW6074 Weather Reports


time (UTC)temp
C
wind
direction
speed
KPH
gust
KPH
rain 1hr
cm
rain 24hr
cm
rain mn
cm
humidity
%
barometer
mb
20260502130642 3 323 3.2 4.8 0.00 0.15 0.15 99 1010.3
20260502130139 2 306 4.8 4.8 0.00 0.15 0.15 99 1010.4
20260502123625 2 328 1.6 3.2 0.00 0.15 0.15 99 1010.7
20260502123121 2 323 1.6 3.2 0.00 0.15 0.15 99 1010.8
20260502122618 2 325 3.2 3.2 0.00 0.15 0.15 99 1010.5
20260502122115 1 18 0.0 3.2 0.00 0.15 0.15 99 1010.7
20260502121613 1 333 1.6 3.2 0.00 0.15 0.15 99 1010.6
20260502121110 1 337 1.6 3.2 0.00 0.15 0.15 99 1010.7
20260502120606 1 337 4.8 4.8 0.00 0.15 0.15 99 1010.7
20260502115601 1 321 3.2 3.2 0.00 0.15 0.15 99 1010.6
20260502115102 1 302 3.2 4.8 0.00 0.15 0.15 99 1010.6
20260502114558 2 353 3.2 4.8 0.00 0.15 0.15 99 1010.5
20260502114055 1 336 1.6 1.6 0.00 0.15 0.15 99 1010.7
20260502113553 1 353 1.6 1.6 0.00 0.15 0.15 99 1010.4
20260502113051 1 354 0.0 1.6 0.00 0.15 0.15 99 1010.7
20260502112549 1 36 0.0 1.6 0.00 0.15 0.15 99 1010.6
20260502112046 1 30 0.0 0.0 0.00 0.15 0.15 99 1010.5
20260502111543 1 7 1.6 3.2 0.00 0.15 0.15 99 1010.5
20260502111041 1 11 1.6 3.2 0.00 0.15 0.15 99 1010.8
20260502110538 1 333 1.6 3.2 0.00 0.15 0.15 99 1010.5
20260502110036 1 323 0.0 0.0 0.00 0.15 0.15 99 1010.5
20260502105533 1 344 0.0 0.0 0.00 0.15 0.15 99 1010.3
20260502105030 1 312 0.0 0.0 0.18 0.15 0.15 99 1010.6
20260502104527 1 158 0.0 0.0 0.18 0.15 0.15 99 1010.4
20260502104025 1 265 0.0 0.0 0.00 0.13 0.13 99 1010.4
20260502103522 1 289 0.0 0.0 0.00 0.13 0.13 99 1010.4
20260502103020 1 338 0.0 0.0 0.00 0.13 0.13 99 1010.6
20260502102516 1 338 0.0 0.0 0.00 0.13 0.13 99 1010.5
20260502102013 1 315 0.0 0.0 0.00 0.13 0.13 99 1010.6
20260502101511 1 343 0.0 0.0 0.00 0.13 0.13 99 1010.5
20260502101010 1 333 0.0 0.0 0.00 0.13 0.13 99 1010.3
20260502100508 1 21 0.0 0.0 0.13 0.13 0.13 99 1010.5
20260502091442 1 259 0.0 0.0 0.00 0.03 0.03 99 1010.9
20260502090939 1 163 0.0 3.2 0.00 0.03 0.03 99 1010.8
20260502090436 1 241 0.0 1.6 0.00 0.03 0.03 99 1010.7
20260502071331 -1 354 0.0 0.0 0.00 0.00 0.00 98 1010.3
20260502070829 -1 354 0.0 0.0 0.00 0.00 0.00 98 1010.4
20260502070326 -1 341 0.0 0.0 0.00 0.00 0.00 98 1010.3
20260502065825 -1 336 0.0 0.0 0.00 0.00 0.00 98 1010.4
20260502065323 -1 336 0.0 0.0 0.00 0.00 0.00 98 1010.3
20260502064820 -1 335 0.0 0.0 0.00 0.00 0.00 98 1010.2
20260502064318 -1 334 0.0 0.0 0.00 0.00 0.00 98 1010.2
20260502063815 -2 358 0.0 1.6 0.00 0.00 0.00 98 1009.9
20260502063313 -2 225 0.0 0.0 0.00 0.00 0.00 98 1010.1
20260502062810 -1 225 0.0 0.0 0.00 0.00 0.00 98 1010.2
20260502062307 -2 225 0.0 0.0 0.00 0.00 0.00 99 1010.1
20260502061806 -2 225 0.0 0.0 0.00 0.00 0.00 99 1010.2
20260502061304 -2 225 0.0 0.0 0.00 0.00 0.00 99 1009.9
20260502060759 -2 225 0.0 0.0 0.00 0.00 0.00 99 1009.9
20260502060255 -2 225 0.0 0.0 0.00 0.00 0.00 99 1009.9
20260502055753 -2 225 0.0 0.0 0.00 0.00 0.00 99 1010.1
20260502055250 -2 225 0.0 0.0 0.00 0.00 0.00 99 1010.2
20260502054749 -2 225 0.0 0.0 0.00 0.00 0.00 98 1010.1
20260502054246 -2 225 0.0 0.0 0.00 0.00 0.00 98 1010.2
20260502053744 -2 225 0.0 0.0 0.00 0.00 0.00 98 1010.4
20260502053241 -2 225 0.0 0.0 0.00 0.00 0.00 98 1010.3
20260502052739 -2 225 0.0 0.0 0.00 0.00 0.00 99 1009.9
20260502052237 -2 225 0.0 0.0 0.00 0.00 0.00 98 1010.2
20260502051734 -2 225 0.0 0.0 0.00 0.00 0.00 98 1010.2
20260502051232 -2 225 0.0 0.0 0.00 0.00 0.00 97 1010.2
20260502050729 -2 225 0.0 0.0 0.00 0.00 0.00 97 1010.2
20260502050225 -2 225 0.0 0.0 0.00 0.00 0.00 96 1010.2
20260502045722 -2 225 0.0 0.0 0.00 0.00 0.00 95 1010.2
20260502045219 -1 225 0.0 0.0 0.00 0.00 0.00 95 1010.3
20260502044715 -1 225 0.0 0.0 0.00 0.00 0.00 94 1010.3
20260502044212 -1 224 0.0 0.0 0.00 0.00 0.00 94 1010.1
20260502043710 -1 224 0.0 0.0 0.00 0.00 0.00 94 1010.1
20260502043207 -1 224 0.0 0.0 0.00 0.00 0.00 95 1010.1
20260502042706 -1 224 0.0 0.0 0.00 0.00 0.00 94 1010.2
20260502042204 -1 224 0.0 0.0 0.00 0.00 0.00 94 1009.9
20260502041701 -1 224 0.0 0.0 0.00 0.00 0.00 94 1009.9
20260502041158 -1 224 0.0 0.0 0.00 0.00 0.00 93 1010.1
20260502040655 -1 224 0.0 0.0 0.00 0.00 0.00 93 1010.1
20260502040152 -1 224 0.0 0.0 0.00 0.00 0.00 94 1010.2
20260502035648 -1 224 0.0 0.0 0.00 0.05 0.05 93 1010.1
20260502035145 -1 224 0.0 0.0 0.00 0.05 0.05 92 1010.1
20260502034643 0 225 0.0 0.0 0.00 0.05 0.05 92 1009.8
20260502034141 0 225 0.0 0.0 0.00 0.05 0.05 91 1009.9
20260502033638 0 225 0.0 0.0 0.00 0.05 0.05 90 1009.9
20260502033136 0 224 0.0 0.0 0.00 0.05 0.05 90 1009.8
20260502032632 0 225 0.0 0.0 0.00 0.05 0.05 90 1009.8
20260502032128 0 225 0.0 0.0 0.00 0.05 0.05 91 1009.7
20260502031627 0 225 0.0 0.0 0.00 0.05 0.05 91 1009.7
20260502031124 0 225 0.0 0.0 0.00 0.05 0.05 92 1009.8
20260502030623 0 225 0.0 0.0 0.00 0.05 0.05 92 1009.9
20260502030120 0 225 0.0 0.0 0.00 0.05 0.05 91 1009.7
20260502025617 0 225 0.0 0.0 0.00 0.05 0.05 89 1009.7
20260502025115 0 225 0.0 0.0 0.00 0.05 0.05 88 1009.8
20260502024613 0 225 0.0 0.0 0.00 0.05 0.05 87 1009.7
20260502024111 0 225 0.0 0.0 0.00 0.05 0.05 86 1009.9
20260502023609 1 225 0.0 0.0 0.00 0.05 0.05 86 1010.1
20260502023106 1 225 0.0 0.0 0.00 0.05 0.05 85 1009.9
20260502022602 1 225 0.0 0.0 0.00 0.05 0.05 84 1009.9
20260502022100 1 225 0.0 0.0 0.00 0.05 0.05 84 1009.9
20260502021556 1 225 0.0 0.0 0.00 0.05 0.05 85 1010.2
20260502021053 1 225 0.0 0.0 0.00 0.05 0.05 84 1010.1
20260502020551 1 225 0.0 0.0 0.00 0.05 0.05 81 1010.1
20260502020048 1 224 0.0 0.0 0.00 0.05 0.05 81 1010.2
20260502015546 2 225 0.0 0.0 0.00 0.05 0.05 83 1010.1
20260502015042 2 225 0.0 0.0 0.00 0.05 0.05 81 1010.2
20260502014539 2 224 0.0 1.6 0.00 0.05 0.05 81 1010.2
20260502014036 2 224 0.0 1.6 0.00 0.05 0.05 81 1009.8
20260502013531 2 224 1.6 1.6 0.00 0.05 0.05 81 1010.2
20260502013028 2 224 0.0 1.6 0.00 0.05 0.05 81 1009.9
20260502012526 2 296 0.0 1.6 0.00 0.05 0.05 79 1009.9
20260502012023 2 355 0.0 0.0 0.00 0.05 0.05 81 1009.7
20260502011520 2 355 0.0 0.0 0.00 0.05 0.05 79 1009.8
20260502011016 2 355 0.0 0.0 0.00 0.05 0.05 80 1009.8
20260502010514 2 356 0.0 0.0 0.00 0.05 0.05 79 1009.6
20260502010009 2 356 0.0 0.0 0.00 0.05 0.05 79 1009.5
20260502005508 2 355 0.0 0.0 0.00 0.05 0.05 77 1009.6
20260502005005 3 355 0.0 1.6 0.00 0.05 0.05 75 1009.4
20260502004500 3 342 1.6 1.6 0.00 0.05 0.05 71 1009.6
20260502003958 3 359 0.0 0.0 0.00 0.05 0.05 68 1009.7
20260502003455 4 13 0.0 0.0 0.00 0.05 0.05 67 1009.5
20260502002951 3 13 0.0 0.0 0.00 0.05 0.05 66 1009.4
20260502002448 4 13 0.0 0.0 0.00 0.05 0.05 65 1009.4
20260502001946 5 351 0.0 0.0 0.00 0.05 0.05 62 1009.2
20260502001443 5 350 0.0 0.0 0.00 0.05 0.05 60 1009.2
20260502000941 6 299 0.0 0.0 0.00 0.05 0.05 56 1009.2
20260502000439 6 297 0.0 0.0 0.00 0.05 0.05 56 1009.1
20260501235935 6 303 0.0 0.0 0.00 0.05 0.05 55 1008.8
20260501235431 7 303 0.0 0.0 0.00 0.05 0.05 54 1008.8
20260501234927 7 326 0.0 1.6 0.00 0.05 0.05 51 1008.9
20260501234424 7 314 0.0 1.6 0.00 0.05 0.05 50 1008.9
20260501233922 7 283 1.6 3.2 0.00 0.05 0.05 51 1008.7
20260501233419 8 324 4.8 11.3 0.00 0.05 0.05 48 1008.6
20260501232914 8 324 6.4 9.7 0.00 0.05 0.05 47 1008.6
20260501232412 8 287 1.6 11.3 0.00 0.05 0.05 48 1008.6
20260501231909 8 333 1.6 4.8 0.00 0.05 0.05 46 1008.5
20260501231407 8 339 0.0 1.6 0.00 0.05 0.05 48 1008.5
20260501230905 8 297 1.6 4.8 0.00 0.05 0.05 46 1008.5
20260501230404 9 314 1.6 4.8 0.00 0.05 0.05 45 1008.3
20260501225900 9 276 4.8 9.7 0.00 0.05 0.05 45 1008.3
20260501225358 9 353 6.4 11.3 0.00 0.05 0.05 45 1008.5
20260501224854 9 301 3.2 9.7 0.00 0.05 0.05 45 1008.4
20260501224352 10 257 8.0 12.9 0.00 0.05 0.05 43 1008.4
20260501223848 10 275 6.4 11.3 0.00 0.05 0.05 44 1008.2
20260501223344 10 264 6.4 11.3 0.00 0.05 0.05 45 1008.2
20260501222840 10 298 8.0 9.7 0.00 0.05 0.05 43 1008.2
20260501222338 10 314 6.4 12.9 0.00 0.05 0.05 42 1008.0
20260501221834 9 334 8.0 16.1 0.00 0.05 0.05 44 1008.1
20260501221332 9 310 0.0 3.2 0.00 0.05 0.05 43 1008.1
20260501220830 9 273 1.6 11.3 0.00 0.05 0.05 45 1008.0
20260501220327 10 9 4.8 11.3 0.00 0.05 0.05 45 1008.0
20260501215823 10 321 4.8 16.1 0.00 0.05 0.05 43 1008.0
20260501215319 10 299 3.2 9.7 0.00 0.05 0.05 43 1008.0
20260501214815 10 343 3.2 9.7 0.00 0.05 0.05 43 1007.9
20260501214310 10 331 8.0 14.5 0.00 0.05 0.05 42 1008.1
20260501213807 11 324 6.4 17.7 0.00 0.05 0.05 43 1008.1
20260501213303 11 301 8.0 16.1 0.00 0.05 0.05 43 1007.6
20260501212759 10 2 4.8 14.5 0.00 0.05 0.05 43 1007.6
20260501212255 11 330 12.9 20.9 0.00 0.05 0.05 42 1007.7
20260501211753 11 238 8.0 17.7 0.00 0.05 0.05 39 1008.0
20260501211249 10 285 6.4 16.1 0.00 0.05 0.05 42 1007.8
20260501210747 10 313 3.2 11.3 0.00 0.05 0.05 44 1007.6
20260501210243 10 343 4.8 14.5 0.00 0.05 0.05 44 1007.7
20260501205740 11 239 9.7 14.5 0.00 0.05 0.05 42 1007.7
20260501205237 10 317 3.2 11.3 0.00 0.05 0.05 47 1007.9
20260501204734 10 1 3.2 14.5 0.00 0.05 0.05 46 1007.9
20260501204231 10 245 9.7 14.5 0.00 0.05 0.05 45 1007.6
20260501203726 10 335 9.7 12.9 0.00 0.05 0.05 46 1007.9
20260501203224 10 324 1.6 11.3 0.00 0.05 0.05 48 1007.6
20260501202721 10 354 4.8 11.3 0.00 0.05 0.05 48 1007.8
20260501202218 10 306 3.2 12.9 0.00 0.05 0.05 48 1007.9
20260501201714 10 337 3.2 12.9 0.00 0.05 0.05 48 1007.8
20260501201211 10 325 9.7 14.5 0.00 0.05 0.05 46 1007.7
20260501200708 10 280 3.2 16.1 0.00 0.05 0.05 47 1007.8
20260501200206 11 325 3.2 12.9 0.00 0.05 0.05 46 1007.6
20260501195703 11 349 17.7 22.5 0.00 0.05 0.05 44 1007.6
20260501195159 10 269 3.2 16.1 0.00 0.05 0.05 47 1007.6
20260501194654 10 348 9.7 12.9 0.00 0.05 0.05 45 1007.5
20260501194149 10 309 3.2 12.9 0.00 0.05 0.05 45 1007.5
20260501193647 10 351 8.0 20.9 0.00 0.05 0.05 46 1007.6
20260501193146 10 322 9.7 20.9 0.00 0.05 0.05 46 1007.7
20260501192643 12 313 8.0 9.7 0.00 0.05 0.05 46 1007.6
20260501192140 11 280 3.2 20.9 0.00 0.05 0.05 48 1007.7
20260501191637 11 257 11.3 14.5 0.00 0.05 0.05 47 1007.7
20260501191129 11 274 6.4 9.7 0.00 0.05 0.05 49 1007.6
20260501190626 11 212 6.4 17.7 0.00 0.05 0.05 49 1007.6
20260501190120 11 271 11.3 20.9 0.00 0.05 0.05 48 1007.8
20260501185617 11 327 6.4 17.7 0.00 0.05 0.05 48 1007.6
20260501185112 11 298 11.3 14.5 0.00 0.05 0.05 48 1007.7
20260501184609 11 326 8.0 12.9 0.00 0.05 0.05 51 1007.6
20260501184104 11 115 6.4 12.9 0.00 0.05 0.05 53 1007.5
20260501183601 12 276 3.2 9.7 0.00 0.05 0.05 49 1007.6
20260501183057 11 297 6.4 12.9 0.00 0.05 0.05 51 1007.5
20260501182554 10 284 3.2 6.4 0.00 0.05 0.05 56 1007.7
20260501182051 10 273 6.4 17.7 0.00 0.05 0.05 54 1007.6
20260501181548 11 281 6.4 16.1 0.00 0.05 0.05 51 1007.8
20260501181045 10 244 3.2 9.7 0.00 0.05 0.05 54 1007.7
20260501180543 9 24 3.2 6.4 0.00 0.05 0.05 57 1007.6
20260501180038 8 322 11.3 16.1 0.00 0.05 0.05 56 1007.8
20260501175535 8 357 6.4 14.5 0.00 0.05 0.05 55 1007.6
20260501175032 8 302 9.7 12.9 0.00 0.05 0.05 57 1007.6
20260501174530 9 276 3.2 11.3 0.00 0.05 0.05 57 1007.7
20260501174027 10 356 1.6 3.2 0.00 0.05 0.05 55 1007.7
20260501173524 9 257 4.8 9.7 0.00 0.05 0.05 61 1007.8
20260501173021 9 261 4.8 6.4 0.00 0.05 0.05 59 1007.7
20260501172516 9 206 3.2 6.4 0.00 0.05 0.05 56 1007.8
20260501172012 10 287 4.8 11.3 0.00 0.05 0.05 59 1007.7
20260501171509 9 328 8.0 14.5 0.00 0.05 0.05 58 1007.7
20260501171005 8 78 1.6 14.5 0.00 0.05 0.05 58 1007.8
20260501170502 8 281 3.2 12.9 0.00 0.05 0.05 57 1007.9
20260501165959 9 134 9.7 16.1 0.00 0.05 0.05 58 1007.9
20260501165457 9 57 3.2 20.9 0.00 0.05 0.05 58 1007.8
20260501164954 8 316 11.3 16.1 0.00 0.05 0.05 61 1008.0
20260501164452 8 324 9.7 11.3 0.00 0.05 0.05 62 1008.1
20260501163948 8 247 3.2 6.4 0.00 0.05 0.05 62 1008.1
20260501163444 8 228 6.4 9.7 0.00 0.05 0.05 62 1008.0
20260501162941 8 224 4.8 11.3 0.00 0.05 0.05 62 1008.1
20260501162438 7 344 12.9 14.5 0.00 0.05 0.05 64 1008.2
20260501161935 7 205 1.6 14.5 0.00 0.05 0.05 66 1008.2
20260501161432 8 15 3.2 9.7 0.00 0.05 0.05 62 1008.3
20260501160928 8 261 4.8 14.5 0.00 0.05 0.05 67 1008.1
20260501160425 7 296 1.6 4.8 0.00 0.05 0.05 65 1008.4
20260501155923 7 199 4.8 14.5 0.00 0.05 0.05 69 1008.3
20260501155420 7 320 11.3 12.9 0.00 0.05 0.05 67 1008.4
20260501154916 7 326 6.4 12.9 0.00 0.05 0.05 66 1008.5
20260501154414 6 355 8.0 12.9 0.00 0.05 0.05 67 1008.5
20260501153911 7 8 9.7 14.5 0.00 0.05 0.05 70 1008.5
20260501153408 7 307 11.3 16.1 0.00 0.05 0.05 66 1008.4
20260501152904 7 254 3.2 9.7 0.00 0.05 0.05 69 1008.6
20260501152401 7 322 8.0 11.3 0.00 0.05 0.05 72 1008.3
20260501151859 6 235 6.4 11.3 0.00 0.05 0.05 72 1008.4
20260501151355 7 67 1.6 4.8 0.00 0.05 0.05 70 1008.3
20260501150851 7 348 3.2 12.9 0.00 0.05 0.05 69 1008.4
20260501150347 7 198 3.2 14.5 0.00 0.05 0.05 69 1008.4
20260501145844 6 243 4.8 12.9 0.00 0.05 0.05 73 1008.3
20260501145341 6 348 11.3 14.5 0.00 0.05 0.05 72 1008.6
20260501144838 7 321 14.5 17.7 0.00 0.05 0.05 71 1008.5
20260501144333 6 231 6.4 14.5 0.00 0.05 0.05 71 1008.4
20260501143830 7 250 4.8 12.9 0.00 0.05 0.05 73 1008.5
20260501143327 6 296 9.7 11.3 0.00 0.05 0.05 74 1008.5
20260501142824 6 327 9.7 12.9 0.00 0.05 0.05 77 1008.4
20260501142320 5 321 6.4 11.3 0.00 0.05 0.05 80 1008.6
20260501141816 5 292 6.4 11.3 0.00 0.05 0.05 79 1008.6
20260501141312 5 317 1.6 11.3 0.00 0.05 0.05 81 1008.5
20260501140810 5 320 4.8 14.5 0.00 0.05 0.05 81 1008.5
20260501140306 5 292 9.7 12.9 0.00 0.05 0.05 79 1008.6
20260501135803 6 304 6.4 11.3 0.00 0.05 0.05 84 1008.6
20260501135301 5 280 8.0 12.9 0.00 0.05 0.05 81 1008.5
20260501134756 5 308 4.8 6.4 0.00 0.05 0.05 82 1008.7
20260501134254 5 283 4.8 6.4 0.00 0.05 0.05 84 1008.5
20260501133750 5 244 3.2 11.3 0.00 0.05 0.05 83 1008.6